GFSFLT1_sfc_thetae_132.txt.gz
Theta_e
325 326 330 331 332 334 336 339 340 341 340 339 340 338 340 342 342 341 342 343 344 345 345 346 348 349 351 351 351 352 352 355 352
323 325 330 331 333 334 336 338 340 341 340 340 341 340 339 340 342 342 342 345 344 345 347 347 349 348 350 351 351 350 352 352 351
323 325 328 331 333 334 336 338 341 341 342 340 342 342 342 341 342 343 344 345 345 346 347 349 350 349 350 351 352 353 352 351 351
322 324 327 331 333 335 336 338 340 341 341 340 341 342 343 344 343 344 345 344 346 347 348 350 349 350 350 350 351 353 352 351 351
323 326 329 332 334 336 337 337 338 341 343 342 343 344 343 344 345 346 345 346 347 348 348 350 351 351 350 351 352 353 351 350 352
325 326 326 330 333 335 337 338 340 342 344 343 345 345 344 344 345 345 346 347 350 350 350 350 350 351 351 350 351 351 351 351 350
326 325 327 328 330 334 337 340 342 343 344 345 345 345 345 344 344 346 346 347 348 349 350 350 351 351 350 349 349 351 352 352 351
327 327 326 328 329 331 334 339 343 344 345 345 345 345 344 344 346 347 347 347 348 349 350 349 350 351 351 351 351 349 351 351 352
323 327 329 329 330 332 334 336 341 343 344 344 345 344 344 344 345 345 347 346 346 346 348 348 348 349 350 347 343 331 333 338 343
324 330 328 329 331 333 337 340 342 342 342 343 344 342 341 342 342 342 342 343 343 341 342 343 341 342 342 338 335 325 324 328 335
322 326 329 331 332 335 338 339 339 339 340 339 339 338 339 341 339 337 338 341 342 342 342 342 339 336 334 332 326 318 318 323 329
321 322 324 330 334 337 338 337 338 338 337 338 338 337 338 339 340 337 337 337 339 340 339 338 333 329 327 325 319 315 317 323 331
320 322 323 325 333 333 334 335 337 336 336 336 335 336 336 339 339 338 337 338 339 338 338 331 323 317 315 313 313 314 316 323 338
320 321 322 323 325 325 328 333 333 332 334 333 336 337 336 337 337 336 337 337 335 330 327 321 318 314 314 312 314 315 315 320 331
318 318 319 322 321 322 325 327 331 330 325 328 334 336 335 334 335 337 335 331 328 325 321 317 315 312 311 311 311 310 310 315 318
315 316 316 319 319 319 321 323 325 322 324 327 326 324 321 321 322 325 331 328 324 321 319 316 313 312 311 312 312 310 307 310 313
314 314 314 316 318 316 317 320 321 321 323 321 319 316 315 314 313 311 311 310 314 321 320 316 314 315 315 310 307 304 304 305 312
313 313 312 313 313 314 314 317 318 319 321 321 316 314 313 312 312 308 305 300 300 302 299 300 310 315 315 307 304 300 299 301 305
312 312 311 310 311 311 311 312 313 315 318 321 319 315 313 310 309 308 307 306 303 299 299 298 297 297 303 298 297 296 294 293 294
311 311 310 310 310 310 310 310 310 310 314 315 315 314 310 308 307 306 305 305 306 306 300 297 295 295 297 296 295 295 293 293 295

GFSFLT1_sfc_thetae_135.txt.gz
Theta_e
329 331 335 337 338 340 342 343 346 347 349 350 351 352 353 355 356 352 352 354 352 353 351 353 359 360 360 361 362 361 364 362 360
329 330 333 336 338 340 342 344 346 347 349 351 350 351 353 353 354 354 353 356 357 354 357 355 358 358 359 361 361 362 362 359 360
329 332 333 336 338 341 343 344 346 348 350 351 351 351 351 350 352 354 354 355 356 357 357 357 358 359 358 359 361 362 362 359 361
328 331 333 335 338 341 345 345 346 347 349 350 350 350 352 351 350 352 354 353 355 357 358 359 358 360 360 360 359 361 362 361 360
329 332 333 336 338 340 342 344 346 347 348 349 350 351 352 352 353 352 351 353 355 357 357 360 360 361 359 360 360 361 360 359 357
328 333 333 336 338 339 342 342 347 347 350 349 350 352 351 352 352 353 353 354 357 358 357 358 359 361 360 361 360 360 360 360 359
329 330 332 336 337 336 341 341 346 348 349 352 351 352 352 352 352 354 354 355 356 358 360 359 359 361 361 361 361 360 359 359 359
330 330 332 335 337 339 339 342 346 348 350 352 353 352 352 353 355 355 356 356 357 358 358 360 358 359 360 360 359 356 359 361 359
328 331 332 333 336 337 339 340 346 344 350 350 350 350 352 355 356 356 356 357 356 358 358 359 359 354 357 357 358 332 334 343 357
325 331 334 334 335 338 340 343 347 348 346 349 352 348 351 353 355 354 356 357 356 355 356 357 357 356 356 352 352 327 327 331 351
323 326 331 336 338 340 343 346 346 348 349 349 350 351 350 351 350 351 351 353 354 354 353 352 352 349 347 346 333 318 319 325 345
322 324 327 334 339 341 343 344 346 347 345 346 345 344 344 343 344 341 341 341 345 343 344 343 342 345 341 340 334 316 316 324 345
322 324 325 329 335 337 337 339 344 341 340 340 342 337 339 341 341 340 339 339 340 342 341 335 327 321 320 315 325 317 315 323 343
322 323 325 327 334 332 332 335 339 340 341 338 340 341 342 341 341 339 339 340 338 336 331 326 321 318 316 317 314 323 313 320 337
319 320 322 324 324 326 331 334 337 335 333 338 339 338 339 340 340 340 336 332 328 328 325 321 318 316 314 316 316 310 312 314 319
319 319 320 322 322 322 325 328 330 326 327 331 335 331 326 326 327 327 333 329 324 322 321 319 316 317 315 315 314 314 309 310 313
321 321 320 321 321 322 321 325 327 326 325 327 323 321 319 315 315 313 314 316 323 323 322 320 322 320 317 314 314 310 310 312 317
320 321 322 324 323 321 321 323 326 327 322 321 318 317 316 314 313 310 307 304 306 306 302 305 318 318 314 308 304 299 298 298 304
320 318 320 320 321 320 320 320 320 321 323 320 317 314 314 312 313 313 312 309 305 302 300 298 296 297 302 299 299 296 295 294 295
316 318 318 317 318 318 319 319 319 322 321 326 325 321 316 313 314 315 314 315 315 311 301 297 296 296 296 298 300 295 294 294 296

GFSFLT1_sfc_thetae_138.txt.gz
Theta_e
331 336 336 337 341 344 345 347 349 349 352 355 356 357 357 361 360 355 349 353 350 351 351 351 357 361 362 363 363 363 364 360 359
331 335 336 337 340 344 345 347 349 350 352 355 356 355 358 359 358 356 355 358 359 353 357 354 358 360 360 361 362 364 364 357 361
333 336 336 337 341 344 345 348 349 352 353 355 356 354 355 355 357 359 359 360 358 358 359 360 359 361 360 361 363 363 366 359 361
332 334 335 337 340 344 347 348 349 351 352 354 355 355 355 355 355 356 358 356 358 360 360 359 361 362 361 360 361 363 363 362 361
329 334 337 336 340 342 345 348 350 351 352 353 354 356 356 356 357 357 355 355 357 359 361 365 364 363 360 360 359 361 361 358 357
329 330 332 334 338 342 344 347 350 351 353 354 355 356 355 356 356 356 355 355 358 359 361 362 362 363 361 362 360 361 361 360 359
331 334 334 336 340 337 345 349 351 352 353 355 355 355 356 356 357 357 356 358 360 360 362 362 361 362 363 362 361 361 361 360 360
333 332 334 338 337 341 347 349 351 352 354 356 356 356 357 357 360 360 360 359 360 360 361 364 361 362 359 359 358 357 358 362 361
332 335 335 336 338 341 344 348 348 351 354 355 357 357 356 359 361 361 360 360 360 360 361 362 363 360 358 357 360 332 334 344 361
327 330 337 338 340 342 345 345 349 345 353 357 354 355 356 357 360 360 362 360 360 360 360 361 360 359 358 357 342 324 325 330 354
324 325 331 339 341 342 343 345 347 352 352 356 352 353 352 355 357 359 361 360 359 360 362 361 360 358 358 357 338 319 320 323 349
325 325 328 338 343 346 347 347 348 351 349 349 351 351 353 356 356 355 356 354 356 354 355 355 357 356 354 354 348 318 319 330 349
326 327 328 335 338 339 344 348 350 349 346 349 350 349 348 349 351 343 348 342 344 344 345 341 336 329 329 321 331 316 315 329 346
326 328 327 335 334 333 335 342 345 339 339 340 345 347 348 347 344 344 347 347 345 344 336 331 325 321 319 319 315 322 313 318 342
323 325 326 331 332 336 336 340 344 341 341 345 347 346 346 347 346 344 338 333 331 328 326 320 318 316 316 319 320 310 312 313 317
324 325 324 326 329 331 335 337 339 334 334 338 339 342 339 335 334 333 338 332 328 324 322 318 317 317 317 317 318 318 311 312 315
327 325 323 325 324 324 325 329 331 332 331 339 336 331 326 328 323 318 319 324 329 327 326 323 321 321 319 318 320 321 323 325 323
328 328 326 326 325 323 324 327 326 327 326 329 329 325 321 316 314 312 306 307 312 317 312 313 324 322 317 312 311 309 306 311 322
328 328 328 327 327 324 324 327 329 328 327 324 320 318 317 317 317 315 312 311 311 301 300 299 297 297 305 305 299 296 295 295 296
319 323 325 327 326 326 327 327 328 332 332 327 322 319 319 320 323 326 326 324 322 319 307 298 297 297 297 299 299 296 294 295 296

GFSFLT1_sfc_thetae_141.txt.gz
Theta_e
334 335 336 334 339 339 344 346 348 349 353 356 357 356 357 361 359 352 353 357 352 349 352 350 368 362 360 360 360 361 363 359 358
332 334 336 333 338 339 342 346 348 350 353 356 357 355 361 357 358 357 357 365 361 353 363 358 358 357 359 360 362 362 364 357 361
332 336 336 335 338 343 343 345 348 351 353 356 357 356 356 355 356 358 359 360 359 362 362 358 361 360 357 359 361 362 366 363 365
329 335 335 337 338 342 347 345 348 349 352 355 355 355 356 358 356 357 357 356 358 359 362 362 361 362 361 361 360 362 366 365 363
333 335 335 335 338 340 342 348 349 350 351 353 355 356 357 355 357 358 355 356 357 359 361 364 363 364 362 360 360 362 362 359 358
331 334 335 340 339 338 341 345 352 350 354 353 355 356 354 355 356 356 356 357 359 359 362 362 362 363 362 361 361 361 361 362 360
329 332 334 337 339 342 341 349 353 355 353 355 355 356 359 362 359 360 357 358 361 360 364 366 365 364 365 363 361 360 361 361 360
332 331 330 334 336 340 345 348 355 356 355 358 357 358 357 361 365 364 365 363 364 361 364 365 365 362 362 361 359 355 360 364 362
333 332 332 334 339 337 339 345 350 354 358 358 359 360 357 363 363 363 363 363 363 364 362 362 364 362 363 360 360 335 338 345 358
331 332 334 338 340 341 342 344 350 352 355 358 362 361 360 361 364 363 366 363 363 362 362 365 366 362 361 361 354 324 327 332 353
329 328 331 338 343 346 348 349 351 354 355 362 360 360 360 361 362 361 362 360 362 367 366 366 365 362 361 359 335 322 322 326 351
330 327 330 336 347 346 348 349 352 354 354 357 355 355 356 357 353 356 356 355 365 365 364 363 359 356 347 351 335 320 321 329 350
332 329 330 337 345 348 347 349 346 347 349 350 344 354 355 358 356 357 353 351 356 352 357 348 347 333 334 325 332 316 317 327 346
332 329 330 334 339 340 346 351 349 346 346 345 347 348 352 350 351 351 351 351 352 351 346 342 332 326 324 324 316 321 314 319 341
327 328 332 333 335 335 339 346 346 344 342 343 347 348 347 348 348 347 344 342 340 329 324 322 320 320 319 321 317 314 314 315 319
327 326 326 334 336 334 338 341 343 340 345 349 348 345 343 339 338 339 341 337 332 327 323 320 318 318 317 316 319 318 313 312 316
324 325 325 330 331 330 329 335 334 333 340 343 341 337 333 330 327 330 332 333 332 328 326 323 323 322 320 319 320 323 324 324 323
328 325 325 327 326 326 326 329 328 329 337 338 332 326 325 326 323 317 314 313 313 325 316 315 327 326 322 316 315 311 302 302 321
328 327 328 325 326 327 328 328 327 326 327 334 331 327 326 323 324 325 323 321 317 301 301 299 297 298 308 304 300 297 297 296 298
325 329 329 328 327 328 329 330 331 331 334 333 329 327 328 328 327 327 326 327 327 324 310 300 298 298 299 299 298 297 296 296 298

GFSFLT1_sfc_thetae_144.txt.gz
Theta_e
330 332 334 335 336 342 340 346 348 352 355 355 356 357 358 362 362 353 351 356 362 359 354 354 363 365 367 365 365 364 365 364 364
330 334 336 337 338 339 337 340 349 352 356 355 355 356 360 360 360 359 362 360 368 359 369 355 365 364 363 367 365 369 370 364 364
330 334 336 333 336 337 342 341 347 354 357 357 356 357 356 355 360 361 362 365 367 365 371 356 351 365 364 364 366 367 369 365 363
330 332 336 338 339 335 337 344 347 351 355 357 356 357 356 357 357 357 362 362 360 365 369 370 368 364 365 365 366 367 369 365 363
331 338 335 340 339 339 338 347 348 347 353 355 355 355 359 358 358 358 357 358 361 362 364 371 370 368 368 365 366 365 364 360 358
335 337 338 340 337 339 340 348 350 351 353 353 355 357 357 357 358 359 360 359 361 364 365 367 367 369 365 364 364 364 363 363 360
330 333 331 337 336 339 337 348 345 343 346 355 356 355 357 357 358 361 359 362 362 363 367 364 366 366 365 365 364 363 362 361 361
326 327 329 329 333 338 343 346 346 346 354 356 356 357 359 360 361 363 363 363 364 364 365 364 366 364 364 364 362 357 352 361 362
330 327 328 329 334 335 342 343 347 354 358 357 359 359 359 363 362 362 362 362 362 363 363 364 364 361 362 360 360 337 339 345 360
335 337 336 337 335 339 346 342 340 337 358 363 360 361 361 362 364 362 363 364 364 364 363 363 363 363 361 360 331 325 328 335 352
332 333 335 338 344 346 345 345 348 357 358 362 359 359 360 361 362 362 363 363 362 358 363 363 362 362 359 351 331 326 326 329 343
332 331 333 338 343 348 350 351 354 358 357 356 357 356 359 360 362 361 359 361 362 365 362 359 358 352 351 338 331 325 323 331 350
332 330 333 338 345 348 350 351 352 346 353 350 356 355 357 358 356 357 355 355 354 356 350 344 340 338 336 331 333 317 318 326 341
332 329 332 337 343 343 347 352 349 342 340 340 345 347 351 352 348 354 354 352 350 351 344 335 333 330 330 326 325 321 315 320 337
330 328 331 334 336 340 345 349 348 342 340 342 342 342 343 343 344 343 342 340 335 332 327 323 321 320 320 320 318 315 314 314 317
326 326 327 334 333 334 337 339 344 343 343 346 343 341 337 338 341 340 340 335 331 328 327 324 322 319 317 317 319 318 313 313 315
324 325 325 330 331 331 330 332 336 343 342 339 335 332 332 333 335 333 334 333 331 328 327 324 323 320 319 320 323 325 323 320 320
324 324 326 327 328 328 328 329 332 339 338 335 332 332 330 327 325 323 318 314 313 323 314 314 326 327 324 321 317 308 301 304 325
327 325 325 325 326 326 327 325 326 333 336 334 327 325 324 325 325 322 322 320 314 301 301 299 298 299 311 303 301 298 298 297 302
325 327 327 327 326 329 328 326 325 328 333 334 333 330 329 329 327 325 323 325 322 316 306 301 299 298 299 300 299 298 297 297 301

GFSFLT1_sfc_thetae_147.txt.gz
Theta_e
327 329 328 330 334 335 337 341 343 347 345 344 348 349 347 348 348 343 342 345 342 349 350 350 352 353 352 353 355 352 351 349 350
325 328 330 332 336 337 341 343 340 346 346 347 346 349 348 348 347 342 339 346 351 347 354 356 355 355 353 350 348 352 352 351 350
325 327 329 332 334 338 341 342 343 346 349 348 346 348 349 349 349 348 349 349 347 349 347 346 350 353 350 350 350 351 352 350 351
326 328 330 333 335 336 337 340 342 344 349 347 346 347 348 346 349 350 349 349 350 348 351 348 345 348 350 352 352 353 352 350 351
325 329 330 332 335 335 336 337 340 343 350 349 348 349 348 346 348 349 348 350 351 349 351 352 351 352 351 351 351 351 350 348 349
331 333 333 333 335 334 333 333 335 345 349 349 349 349 349 348 349 349 347 349 348 352 350 352 353 352 351 352 352 352 351 352 350
326 330 329 333 332 335 334 336 338 347 347 349 349 349 350 348 349 350 351 352 351 352 354 354 354 353 353 355 354 354 352 352 350
325 323 328 330 331 336 338 343 339 340 337 340 347 348 349 349 350 352 351 351 351 351 352 352 352 353 354 354 355 353 342 346 350
325 322 325 328 334 334 337 342 335 337 333 333 343 347 349 351 351 351 350 351 351 351 351 353 354 352 352 352 353 336 338 340 348
328 332 332 333 331 333 336 340 338 336 339 337 341 349 350 351 351 350 351 350 349 349 349 352 351 351 351 348 329 326 329 334 341
327 330 330 332 335 338 335 340 338 339 338 342 336 349 347 350 352 350 351 352 350 349 351 350 347 347 348 334 328 329 328 330 336
328 328 329 331 336 341 343 341 339 333 333 339 338 347 349 351 351 349 345 342 345 347 348 345 341 341 338 332 329 325 325 331 340
329 330 330 333 335 342 342 344 342 342 341 340 338 344 347 347 345 343 346 343 344 343 340 337 334 332 332 328 325 318 321 327 339
329 327 330 333 336 339 339 342 339 327 329 334 336 342 344 345 345 345 341 339 341 337 333 331 328 324 322 321 320 318 315 320 331
328 325 328 332 335 336 338 340 338 334 332 334 336 340 341 339 339 339 336 333 331 328 325 322 321 320 319 319 318 315 314 315 318
325 323 326 331 332 331 333 336 337 333 333 336 338 337 337 336 335 334 332 330 327 325 324 321 320 319 318 318 319 318 313 313 316
324 325 325 329 329 328 328 333 338 338 336 336 334 333 333 333 331 330 329 329 327 325 322 321 319 318 318 319 321 321 320 318 317
324 324 325 327 326 326 325 329 332 332 332 331 328 327 325 325 322 318 312 306 307 314 304 311 321 320 319 317 313 304 301 306 316
324 323 324 325 325 325 325 326 330 330 329 328 326 324 323 321 318 317 316 312 307 301 300 299 298 303 308 299 301 298 297 300 304
321 324 325 325 325 325 325 325 326 330 328 329 327 324 323 323 322 323 319 317 316 311 305 302 299 297 299 300 298 297 297 298 301